This demonstration page uses our WeatherBlox Daily Observations layout. Learn more.

Left ArrowRight Arrow

53.62937, 11.41316

Hourly Observations for September 26, 2022

Temp ( °F °C ) Dew Point ( °F °C ) Humidity (%) Winds ( mph kmh ) Pressure ( in mb ) Visibility ( mi km ) Precip ( " mm )
12:20 am 00:20 Mostly Cloudy 46 8 45 7 93 93 VRB 2 4 29.77 1008 2 3 0.00 0.00
12:50 am 00:50 Partly Cloudy 45 7 45 7 100 100 SSW 3 6 29.77 1008 6 10 0.00 0.00
1:20 am 01:20 Clear 46 8 45 7 93 93 VRB 3 6 29.74 1007 6 10 0.00 0.00
1:50 am 01:50 Mostly Clear 46 8 45 7 93 93 VRB 3 6 29.74 1007 6 10 0.00 0.00
2:20 am 02:20 Clear 46 8 45 7 93 93 SSW 3 6 29.71 1006 6 10 0.00 0.00
2:50 am 02:50 Clear 46 8 45 7 93 93 SSW 3 6 29.71 1006 6 10 0.00 0.00
3:20 am 03:20 Mostly Clear 46 8 45 7 93 93 VRB 5 7 29.71 1006 6 10 0.00 0.00
3:50 am 03:50 Mostly Clear 46 8 45 7 93 93 SSW 3 6 29.68 1005 6 10 0.00 0.00
4:20 am 04:20 Mostly Clear 46 8 45 7 93 93 VRB 5 7 29.68 1005 6 10 0.00 0.00
4:50 am 04:50 Mostly Cloudy 46 8 45 7 93 93 SSW 5 7 29.65 1004 6 10 0.00 0.00
5:20 am 05:20 Mostly Clear 46 8 45 7 93 93 VRB 5 7 29.65 1004 6 10 0.00 0.00
5:50 am 05:50 Mostly Clear 46 8 45 7 93 93 VRB 5 7 29.65 1004 6 10 0.00 0.00
6:20 am 06:20 Mostly Clear 48 9 45 7 87 87 SSW 6 9 29.62 1003 6 10 0.00 0.00
6:50 am 06:50 Mostly Clear 48 9 45 7 87 87 SSW 6 9 29.62 1003 6 10 0.00 0.00
7:20 am 07:20 Mostly Sunny 48 9 45 7 87 87 SSW 5 7 29.59 1002 6 10 0.00 0.00
7:50 am 07:50 Mostly Sunny 48 9 46 8 93 93 SSW 5 7 29.59 1002 6 10 0.00 0.00
8:20 am 08:20 Mostly Sunny 50 10 46 8 87 87 SSW 6 9 29.59 1002 6 10 0.00 0.00
8:50 am 08:50 Mostly Sunny 50 10 46 8 87 87 VRB 5 7 29.59 1002 6 10 0.00 0.00
9:20 am 09:20 Partly Cloudy 52 11 48 9 87 87 VRB 6 9 29.59 1002 6 10 0.00 0.00
9:50 am 09:50 Mostly Cloudy 50 10 46 8 87 87 VRB 5 7 29.56 1001 6 10 0.00 0.00
10:20 am 10:20 Mostly Sunny 52 11 48 9 87 87 VRB 6 9 29.56 1001 6 10 0.00 0.00
10:50 am 10:50 Mostly Cloudy 52 11 48 9 87 87 VRB 6 9 29.56 1001 6 10 0.00 0.00
11:20 am 11:20 Mostly Cloudy 52 11 48 9 87 87 VRB 6 9 29.56 1001 6 10 0.00 0.00
11:50 am 11:50 Mostly Sunny 55 13 50 10 82 82 VRB 7 11 29.56 1001 6 10 0.00 0.00
12:20 pm 12:20 Partly Cloudy 55 13 48 9 77 77 VRB 7 11 29.53 1000 6 10 0.00 0.00
12:50 pm 12:50 Mostly Cloudy 55 13 48 9 77 77 SSW 7 11 29.53 1000 6 10 0.00 0.00
1:20 pm 13:20 Partly Cloudy 55 13 46 8 72 72 SSW 8 13 29.53 1000 6 10 0.00 0.00
1:50 pm 13:50 Mostly Cloudy with Light Rain 55 13 46 8 72 72 VRB 7 11 29.50 999 6 10 0.00 0.00
2:20 pm 14:20 Mostly Sunny 57 14 46 8 67 67 VRB 7 11 29.50 999 6 10 0.00 0.00
2:50 pm 14:50 Partly Cloudy 55 13 46 8 72 72 VRB 6 9 29.50 999 6 10 0.00 0.00
3:20 pm 15:20 Mostly Cloudy with Light Rain 55 13 46 8 72 72 VRB 7 11 29.47 998 6 10 0.00 0.00
3:50 pm 15:50 Mostly Cloudy with Light Rain 55 13 46 8 72 72 VRB 6 9 29.47 998 6 10 0.00 0.00
4:20 pm 16:20 Mostly Cloudy with Light Rain 54 12 48 9 82 82 VRB 5 7 29.47 998 6 10 0.00 0.00
4:50 pm 16:50 Mostly Cloudy with Light Rain 54 12 48 9 82 82 SSW 7 11 29.47 998 6 10 0.00 0.00
5:20 pm 17:20 Mostly Cloudy with Light Rain 54 12 48 9 82 82 VRB 6 9 29.44 997 6 10 0.00 0.00
5:50 pm 17:50 Mostly Cloudy with Light Rain 54 12 48 9 82 82 S 7 11 29.44 997 6 10 0.00 0.00
6:20 pm 18:20 Mostly Cloudy with Light Rain 52 11 48 9 87 87 VRB 8 13 29.44 997 6 10 0.00 0.00
6:50 pm 18:50 Mostly Cloudy 52 11 48 9 87 87 S 7 11 29.41 996 6 10 0.00 0.00
7:20 pm 19:20 Mostly Cloudy 52 11 48 9 87 87 VRB 8 13 29.41 996 6 10 0.00 0.00
7:50 pm 19:50 Mostly Cloudy with Light Rain 52 11 48 9 87 87 S 7 11 29.41 996 6 9 0.00 0.00
8:20 pm 20:20 Mostly Cloudy with Light Rain 52 11 50 10 94 94 VRB 6 9 29.41 996 4 6 0.00 0.00
8:50 pm 20:50 Mostly Cloudy with Light Rain 52 11 50 10 94 94 S 7 11 29.38 995 3 5 0.00 0.00
9:20 pm 21:20 Mostly Cloudy 52 11 50 10 94 94 S 6 9 29.38 995 4 7 0.00 0.00
9:50 pm 21:50 Mostly Cloudy 52 11 50 10 94 94 VRB 6 9 29.38 995 6 10 0.00 0.00
10:20 pm 22:20 Mostly Cloudy 52 11 50 10 94 94 S 6 9 29.38 995 6 10 0.00 0.00
10:50 pm 22:50 Mostly Cloudy 52 11 50 10 94 94 S 7 11 29.38 995 6 10 0.00 0.00
11:20 pm 23:20 Mostly Cloudy 52 11 50 10 94 94 S 7 11 29.35 994 6 10 0.00 0.00
11:50 pm 23:50 Mostly Cloudy 50 10 48 9 93 93 VRB 6 9 29.35 994 6 10 0.00 0.00

Powered by AerisWeather